Location: Recife
(8.0585°S, 34.8848°W)
Time: 21:44:07
(UTC-03:00)

Vanguard 1 Rocket - Pass Details

Date: 22 April 2026
Orbit: 655 x 4212 km, 34.3° (Epoch: 12 May)

Event Time Altitude Azimuth Distance (km) Brightness Sun altitude
Rises 15:16:45 0° 234° (SW) 4,364 11.4 27.3°
Reaches altitude 10° 15:19:03 10° 234° (SW) 3,684 11.1 26.7°
Maximum altitude 15:29:12 90° 149° (SSE) 2,354 9.9 24.3°
Drops below altitude 10° 15:49:42 10° 53° (NE) 6,819 11.6 19.5°
Sets 15:55:51 0° 53° (NE) 8,172 11.9 18.0°
